Location: Unspecified
(0.0000°N, 0.0000°E)
Time: 08:26:52
(UTC+00:00)

BEESAT 2 - Pass Details

Date: 13 December 2019
Orbit: 493 x 535 km, 64.9° (Epoch: 23 January)

Event Time Altitude Azimuth Distance (km) Brightness Sun altitude
Rises 19:13:28 0° 330° (NNW) 2,651 ? -18.2°
Reaches altitude 10° 19:15:41 10° 325° (NW) 1,759 ? -18.7°
Maximum altitude 19:19:31 52° 249° (WSW) 654 ? -19.5°
Drops below altitude 10° 19:23:20 10° 172° (S) 1,743 ? -20.4°
Sets 19:25:32 0° 166° (SSE) 2,624 ? -20.9°
